{"data":{"norad_id":47258,"epoch":"2026-05-25T02:38:54.328992Z","epoch_age_seconds":58748,"freshness":"FRESH","line1":"1 47258U 20100A   26145.11035103  .00000442  00000+0  11943-2 0  9990","line2":"2 47258  87.8951 355.2662 0001512  81.1906 278.9394 13.12442976261706","mean_motion":13.12442976,"eccentricity":0.0001512,"inclination_deg":87.8951,"raan_deg":355.2662,"arg_perigee_deg":81.1906,"mean_anomaly_deg":278.9394,"bstar":0.0011943,"rev_number":26170,"period_min":109.71905266229,"perigee_km":1212.5754943102,"apogee_km":1214.8712728902,"semimajor_km":7591.8603836002,"source":"CELESTRAK","updated_at":"2026-05-25T13:38:22.376990Z"}}